DELTA 1 DEB, 21492

Orbit data source: Space-Track

DELTA 1 DEB, 21492 is space debris in SSO originally from a launch on Thu, 12 Jun 1975 UTC launched from the Air Force Western Test Range (AFWTR). Debris objects in space refer to the collection of defunct objects orbiting the Earth. Examples of debris include non-operational satellites, rocket bodies, and fragments generated from explosions, collisions, or faulty payload assembly.

Loading next visibility...
Identifier
21492, 1975-052FM
Orbit
SSO
Country
Flag of USUS
Related business
Manufacturer
Unknown
Mission
Spacecraft
Bus & Motor
Unknown
Mass
Unknown
Launch date (UTC)
1975-06-12 (50 years ago)
Launch vehicle
Unknown
Launch site
Air Force Western Test Range (AFWTR)
Object type
Payload
Rocket body
Debris
Shape & HBR
Unknown shape, 0.1 m
Radar Cross Section
Small (<0.1 m²)

Expand to show TLE details & history
Last TLE update: 2 days ago

TLE from 2 days ago
0 DELTA 1 DEB
1 21492U 75052FM  25289.33690568  .00000125  00000-0  33318-3 0  9992
2 21492  99.8014  56.7219 0062524  72.9857 345.4558 13.33717990676228
Epoch: 2025-10-16T08:05Z
TLE epoch observation values (Epoch: 2025-10-16T08:05:08.650Z)
Latitude
57.02965°
Longitude
-105.02648°
Altitude
1,096.786 km
Speed
7.331 km/s
True Right ascension
02h 45m 25s
True Declination
56° 52' 46"
Sunlit
Object was in full shadow at epoch
Visualization orbit readout
Latitude
Unknown
Longitude
Unknown
Altitude
Unknown
Speed
Unknown
Apparent Right ascension
Unknown
Apparent Declination
Unknown
Sunlit
N/A
Visualization observer readout
Local Sidereal Time
14:19:16
Azimuth
Unknown
Elevation
Unknown
Doppler factor
Unknown
Orbital elements
Apogee altitude
1,177.045 km
Perigee altitude
1,083.156 km
Semi-major axis
7,508.237 km
Eccentricity
0.00625
Inclination
99.8014°
RAAN
56.7219°
Arg. of periapsis
72.9857°
True anomaly
345.2745°
Mean anomaly
345.4558°
Eccentric anomaly
345.36529°
Mean motion
3.33608 °/min
Orbital period
107.91 mins
BSTAR
0.00033318
Loading maneuver chart data...
Computing Atmospheric mass density...

Documentation

Showing up to 5 results
|